Location: Maccacari
(45.1333°N, 11.1333°E)
Time: 08:41:35
(UTC+00:00)

Cosmos 990 Rocket - Pass Details

Date: 18 September 2020
Orbit: 746 x 769 km, 74.0° (Epoch: 29 October)

Event Time Altitude Azimuth Distance (km) Brightness Sun altitude
Rises 17:56:33 0° 200° (SSW) 3,177 7.3 -7.2°
Reaches altitude 10° 17:58:53 10° 200° (SSW) 2,257 6.6 -7.6°
Maximum altitude 18:04:01 88° 289° (WNW) 753 4.0 -8.5°
Drops below altitude 10° 18:09:11 10° 21° (NNE) 2,275 6.4 -9.4°
Sets 18:11:33 0° 22° (NNE) 3,205 7.1 -9.8°
